TimeCDT,TemperatureF,Dew PointF,Humidity,Sea Level PressureIn,VisibilityMPH,Wind Direction,Wind SpeedMPH,Gust SpeedMPH,PrecipitationIn,Events,Conditions,WindDirDegrees,DateUTC
12:15 AM,37.4,28.4,70,30.13,10.0,Calm,Calm,-,N/A,,Clear,0,2012-10-30 05:15:00
12:35 AM,35.6,28.4,75,30.12,10.0,Calm,Calm,-,N/A,,Clear,0,2012-10-30 05:35:00
1:15 AM,35.6,28.4,75,30.11,10.0,Calm,Calm,-,N/A,,Clear,0,2012-10-30 06:15:00
1:35 AM,32.0,28.4,87,30.11,10.0,Calm,Calm,-,N/A,,Clear,0,2012-10-30 06:35:00
1:55 AM,35.6,28.4,75,30.10,10.0,Calm,Calm,-,N/A,,Clear,0,2012-10-30 06:55:00
2:35 AM,35.6,28.4,75,30.09,10.0,Calm,Calm,-,N/A,,Clear,0,2012-10-30 07:35:00
2:55 AM,35.6,28.4,75,30.08,10.0,Calm,Calm,-,N/A,,Clear,0,2012-10-30 07:55:00
3:15 AM,35.6,28.4,75,30.08,10.0,Calm,Calm,-,N/A,,Clear,0,2012-10-30 08:15:00
3:35 AM,32.0,28.4,87,30.07,10.0,Calm,Calm,-,N/A,,Clear,0,2012-10-30 08:35:00
3:55 AM,33.8,28.4,81,30.07,10.0,Calm,Calm,-,N/A,,Clear,0,2012-10-30 08:55:00
4:15 AM,32.0,26.6,80,30.07,10.0,Calm,Calm,-,N/A,,Clear,0,2012-10-30 09:15:00
4:35 AM,32.0,26.6,80,30.07,10.0,Calm,Calm,-,N/A,,Clear,0,2012-10-30 09:35:00
4:55 AM,32.0,28.4,87,30.07,10.0,Calm,Calm,-,N/A,,Clear,0,2012-10-30 09:55:00
5:15 AM,32.0,28.4,87,30.07,10.0,Calm,Calm,-,N/A,,Clear,0,2012-10-30 10:15:00
5:35 AM,32.0,28.4,87,30.06,10.0,Calm,Calm,-,N/A,,Clear,0,2012-10-30 10:35:00
5:55 AM,32.0,28.4,87,30.06,10.0,Calm,Calm,-,N/A,,Clear,0,2012-10-30 10:55:00
6:15 AM,32.0,28.4,87,30.06,10.0,Calm,Calm,-,N/A,,Clear,0,2012-10-30 11:15:00
6:35 AM,32.0,28.4,87,30.07,10.0,Calm,Calm,-,N/A,,Clear,0,2012-10-30 11:35:00
6:55 AM,32.0,28.4,87,30.07,10.0,Calm,Calm,-,N/A,,Clear,0,2012-10-30 11:55:00
7:15 AM,32.0,28.4,87,30.07,10.0,Calm,Calm,-,N/A,,Clear,0,2012-10-30 12:15:00
7:35 AM,32.0,28.4,87,30.07,10.0,Calm,Calm,-,N/A,,Clear,0,2012-10-30 12:35:00
7:55 AM,32.0,30.2,93,30.07,10.0,Calm,Calm,-,N/A,,Clear,0,2012-10-30 12:55:00
8:15 AM,35.6,32.0,87,30.07,10.0,Calm,Calm,-,N/A,,Clear,0,2012-10-30 13:15:00
8:35 AM,37.4,32.0,81,30.06,10.0,NW,6.9,-,N/A,,Clear,320,2012-10-30 13:35:00
9:35 AM,44.6,30.2,57,30.04,10.0,WNW,5.8,-,N/A,,Clear,290,2012-10-30 14:35:00
9:55 AM,48.2,24.8,40,30.04,10.0,North,8.1,17.3,N/A,,Clear,360,2012-10-30 14:55:00
10:15 AM,48.2,24.8,40,30.03,10.0,NNW,12.7,17.3,N/A,,Clear,340,2012-10-30 15:15:00
10:55 AM,50.0,24.8,37,30.02,10.0,NNW,11.5,-,N/A,,Clear,340,2012-10-30 15:55:00
11:15 AM,51.8,24.8,35,30.01,10.0,NW,16.1,-,N/A,,Clear,320,2012-10-30 16:15:00
11:35 AM,53.6,23.0,30,30.00,10.0,NNW,17.3,-,N/A,,Clear,340,2012-10-30 16:35:00
11:55 AM,53.6,21.2,28,29.99,10.0,North,15.0,20.7,N/A,,Clear,350,2012-10-30 16:55:00
12:15 PM,53.6,23.0,30,29.98,10.0,NNW,13.8,21.9,N/A,,Clear,330,2012-10-30 17:15:00
12:35 PM,55.4,23.0,29,29.97,10.0,NW,16.1,25.3,N/A,,Clear,320,2012-10-30 17:35:00
12:55 PM,55.4,24.8,31,29.96,10.0,NW,12.7,19.6,N/A,,Clear,310,2012-10-30 17:55:00
1:35 PM,55.4,24.8,31,29.94,10.0,NW,18.4,24.2,N/A,,Clear,310,2012-10-30 18:35:00
1:55 PM,55.4,24.8,31,29.93,10.0,NNW,16.1,23.0,N/A,,Clear,330,2012-10-30 18:55:00
2:15 PM,55.4,24.8,31,29.93,10.0,NW,17.3,23.0,N/A,,Clear,310,2012-10-30 19:15:00
2:35 PM,57.2,24.8,29,29.92,10.0,WNW,16.1,23.0,N/A,,Clear,300,2012-10-30 19:35:00
2:55 PM,57.2,26.6,31,29.91,10.0,NW,15.0,-,N/A,,Clear,320,2012-10-30 19:55:00
3:15 PM,57.2,26.6,31,29.91,10.0,NW,15.0,20.7,N/A,,Clear,310,2012-10-30 20:15:00
3:35 PM,57.2,26.6,31,29.91,10.0,NW,17.3,23.0,N/A,,Clear,320,2012-10-30 20:35:00
3:55 PM,55.4,26.6,33,29.91,10.0,NW,13.8,-,N/A,,Clear,320,2012-10-30 20:55:00
4:15 PM,55.4,26.6,33,29.91,10.0,NW,11.5,-,N/A,,Clear,310,2012-10-30 21:15:00
4:35 PM,55.4,26.6,33,29.90,10.0,NW,16.1,-,N/A,,Clear,310,2012-10-30 21:35:00
5:15 PM,53.6,26.6,35,29.90,10.0,NW,11.5,-,N/A,,Clear,310,2012-10-30 22:15:00
5:35 PM,53.6,26.6,35,29.91,10.0,NW,10.4,-,N/A,,Clear,320,2012-10-30 22:35:00
5:55 PM,51.8,28.4,41,29.91,10.0,NW,8.1,-,N/A,,Clear,320,2012-10-30 22:55:00
6:15 PM,50.0,28.4,43,29.92,10.0,NNW,6.9,-,N/A,,Clear,330,2012-10-30 23:15:00
6:35 PM,48.2,26.6,43,29.92,10.0,Calm,Calm,-,N/A,,Clear,0,2012-10-30 23:35:00
6:55 PM,48.2,26.6,43,29.93,10.0,Calm,Calm,-,N/A,,Clear,0,2012-10-30 23:55:00
7:15 PM,48.2,26.6,43,29.93,10.0,Calm,Calm,-,N/A,,Clear,0,2012-10-31 00:15:00
7:35 PM,48.2,26.6,43,29.93,10.0,Calm,Calm,-,N/A,,Clear,0,2012-10-31 00:35:00
7:55 PM,48.2,26.6,43,29.94,10.0,Calm,Calm,-,N/A,,Clear,0,2012-10-31 00:55:00
8:15 PM,46.4,28.4,50,29.94,10.0,Calm,Calm,-,N/A,,Clear,0,2012-10-31 01:15:00
8:35 PM,46.4,28.4,50,29.94,10.0,Calm,Calm,-,N/A,,Clear,0,2012-10-31 01:35:00
8:55 PM,46.4,28.4,50,29.94,10.0,Calm,Calm,-,N/A,,Clear,0,2012-10-31 01:55:00
9:15 PM,46.4,28.4,50,29.94,10.0,Calm,Calm,-,N/A,,Clear,0,2012-10-31 02:15:00
9:35 PM,44.6,28.4,53,29.94,10.0,Calm,Calm,-,N/A,,Clear,0,2012-10-31 02:35:00
9:55 PM,44.6,28.4,53,29.94,10.0,Calm,Calm,-,N/A,,Clear,0,2012-10-31 02:55:00
10:15 PM,44.6,28.4,53,29.94,10.0,NNW,5.8,-,N/A,,Clear,330,2012-10-31 03:15:00
10:35 PM,44.6,28.4,53,29.94,10.0,Calm,Calm,-,N/A,,Clear,0,2012-10-31 03:35:00
10:55 PM,44.6,28.4,53,29.94,10.0,Calm,Calm,-,N/A,,Clear,0,2012-10-31 03:55:00
11:15 PM,42.8,28.4,57,29.94,10.0,Calm,Calm,-,N/A,,Clear,0,2012-10-31 04:15:00
11:35 PM,41.0,28.4,61,29.95,10.0,Calm,Calm,-,N/A,,Clear,0,2012-10-31 04:35:00
11:55 PM,41.0,28.4,61,29.95,10.0,Calm,Calm,-,N/A,,Clear,0,2012-10-31 04:55:00